COSMOS 1275 DEB, 18601

Orbit data source: Space-Track

COSMOS 1275 DEB, 18601 is space debris in LEO originally from a launch on Thu, 04 Jun 1981 UTC launched from the Plesetsk Missile And Space Complex (PKMTR). Debris objects in space refer to the collection of defunct objects orbiting the Earth. Examples of debris include non-operational satellites, rocket bodies, and fragments generated from explosions, collisions, or faulty payload assembly.

Loading next visibility...
Identifier
18601, 1981-053LW
Orbit
LEO
Country
Flag of CISCIS
Related business
Manufacturer
Unknown
Mission
Spacecraft
Bus & Motor
Unknown
Mass
Unknown
Launch date (UTC)
1981-06-04 (45 years ago)
Launch vehicle
Unknown
Launch site
Plesetsk Missile And Space Complex (PKMTR)
Object type
Payload
Rocket body
Debris
Shape & HBR
Unknown shape, 0.1 m
Radar Cross Section
Small (<0.1 m²)

Expand to show TLE details & history
Last TLE update: 2 days ago

TLE from 2 days ago
0 COSMOS 1275 DEB
1 18601U 81053LW  25348.46977144  .00004565  00000-0  20468-2 0  9999
2 18601  82.7832 167.9247 0053354 331.0484  56.1918 14.21573348954890
Epoch: 2025-12-14T11:16Z
TLE epoch observation values (Epoch: 2025-12-14T11:16:28.252Z)
Latitude
27.55231°
Longitude
-80.8074°
Altitude
802.222 km
Speed
7.466 km/s
True Right ascension
11h 26m 46s
True Declination
27° 24' 45"
Sunlit
Object was in daylight at epoch
Visualization orbit readout
Latitude
Unknown
Longitude
Unknown
Altitude
Unknown
Speed
Unknown
Apparent Right ascension
Unknown
Apparent Declination
Unknown
Sunlit
N/A
Visualization observer readout
Local Sidereal Time
19:34:48
Azimuth
Unknown
Elevation
Unknown
Doppler factor
Unknown
Orbital elements
Apogee altitude
855.517 km
Perigee altitude
778.738 km
Semi-major axis
7,195.265 km
Eccentricity
0.00534
Inclination
82.7832°
RAAN
167.9247°
Arg. of periapsis
331.0484°
True anomaly
56.70169°
Mean anomaly
56.1918°
Eccentric anomaly
56.44656°
Mean motion
3.55609 °/min
Orbital period
101.23 mins
BSTAR
0.0020468
Loading maneuver chart data...
Computing Atmospheric mass density...
Loading historical data...
Loading historical data...
Loading historical data...
Loading historical data...
Loading historical data...
Loading historical data...
Loading historical data...

Documentation

Showing up to 5 results
|